H1 CPF 2 NER 2024 10 23 9 297 01 glonass146 H2 2216101 9146 54377 2024 10 23 0 0 0 2024 10 26 23 45 0 900 1 1 0 0 0 1 H9 10 0 60606 0.00000 0 19067113.241 7432714.044 -15194159.355 10 0 60606 900.00000 0 17047066.295 7363349.006 -17461142.027 10 0 60606 1800.00000 0 14770190.551 7464553.900 -19388235.845 10 0 60606 2700.00000 0 12295415.495 7764709.010 -20938009.802 10 0 60606 3600.00000 0 9687661.282 8281040.661 -22080404.059 10 0 60606 4500.00000 0 7015320.539 9018740.175 -22793309.159 10 0 60606 5400.00000 0 4347608.363 9970605.846 -23062988.065 10 0 60606 6300.00000 0 1751890.958 11117222.877 -22884333.588 10 0 60606 7200.00000 0 -708896.150 12427673.465 -22260957.117 10 0 60606 8100.00000 0 -2978633.613 13860746.955 -21205107.795 10 0 60606 9000.00000 0 -5010109.382 15366599.005 -19737424.490 10 0 60606 9900.00000 0 -6766729.867 16888789.989 -17886526.006 10 0 60606 10800.00000 0 -8223781.694 18366617.098 -15688447.987 10 0 60606 11700.00000 0 -9369193.467 19737642.446 -13185937.697 10 0 60606 12600.00000 0 -10203767.824 20940311.301 -10427620.609 10 0 60606 13500.00000 0 -10740876.184 21916550.976 -7467054.960 10 0 60606 14400.00000 0 -11005630.922 22614241.670 -4361692.643 10 0 60606 15300.00000 0 -11033571.431 22989456.013 -1171766.525 10 0 60606 16200.00000 0 -10868920.691 23008373.678 2040874.372 10 0 60606 17100.00000 0 -10562486.767 22648791.066 5213959.381 10 0 60606 18000.00000 0 -10169298.281 21901162.920 8285997.479 10 0 60606 18900.00000 0 -9746073.869 20769132.251 11197462.362 10 0 60606 19800.00000 0 -9348632.312 19269526.181 13891938.838 10 0 60606 20700.00000 0 -9029352.372 17431817.486 16317208.794 10 0 60606 21600.00000 0 -8834789.103 15297073.659 18426256.360 10 0 60606 22500.00000 0 -8803546.753 12916436.412 20178173.511 10 0 60606 23400.00000 0 -8964497.699 10349193.873 21538949.201 10 0 60606 24300.00000 0 -9335422.384 7660524.366 22482127.336 10 0 60606 25200.00000 0 -9922127.886 4919004.152 22989321.294 10 0 60606 26100.00000 0 -10718082.898 2193981.244 23050575.140 10 0 60606 27000.00000 0 -11704585.562 -447077.059 22664564.441 10 0 60606 27900.00000 0 -12851458.573 -2941154.015 21838632.303 10 0 60606 28800.00000 0 -14118243.956 -5232064.917 20588659.165 10 0 60606 29700.00000 0 -15455849.066 -7272551.968 18938767.835 10 0 60606 30600.00000 0 -16808576.242 -9026005.877 16920868.271 10 0 60606 31500.00000 0 -18116452.142 -10467742.632 14574049.688 10 0 60606 32400.00000 0 -19317759.721 -11585782.246 11943830.631 10 0 60606 33300.00000 0 -20351666.673 -12381096.888 9081280.588 10 0 60606 34200.00000 0 -21160839.573 -12867318.056 6042029.654 10 0 60606 35100.00000 0 -21693932.880 -13069915.285 2885185.238 10 0 60606 36000.00000 0 -21907846.703 -13024881.303 -327822.906 10 0 60606 36900.00000 0 -21769656.828 -12776979.836 -3534446.157 10 0 60606 37800.00000 0 -21258133.886 -12377630.925 -6672244.668 10 0 60606 38700.00000 0 -20364786.187 -11882524.458 -9680114.087 10 0 60606 39600.00000 0 -19094381.084 -11349064.278 -12499486.100 10 0 60606 40500.00000 0 -17464921.709 -10833752.413 -15075478.269 10 0 60606 41400.00000 0 -15507079.468 -10389625.528 -17357969.755 10 0 60606 42300.00000 0 -13263105.784 -10063853.252 -19302581.209 10 0 60606 43200.00000 0 -10785268.689 -9895600.847 -20871539.424 10 0 60606 44100.00000 0 -8133879.893 -9914247.095 -22034409.951 10 0 60606 45000.00000 0 -5374995.044 -10138032.879 -22768683.757 10 0 60606 45900.00000 0 -2577883.353 -10573197.368 -23060207.133 10 0 60606 46800.00000 0 187627.956 -11213637.859 -22903447.340 10 0 60606 47700.00000 0 2853824.017 -12041107.116 -22301589.683 10 0 60606 48600.00000 0 5357677.005 -13025939.309 -21266465.006 10 0 60606 49500.00000 0 7643218.961 -14128273.498 -19818309.790 10 0 60606 50400.00000 0 9663615.318 -15299722.744 -17985364.152 10 0 60606 51300.00000 0 11382854.402 -16485418.382 -15803316.042 10 0 60606 52200.00000 0 12776984.368 -17626343.375 -13314602.696 10 0 60606 53100.00000 0 13834847.908 -18661856.654 -10567583.134 10 0 60606 54000.00000 0 14558286.074 -19532302.461 -7615597.805 10 0 60606 54900.00000 0 14961804.669 -20181595.253 -4515933.594 10 0 60606 55800.00000 0 15071718.931 -20559671.731 -1328714.247 10 0 60606 56700.00000 0 14924813.994 -20624707.234 1884262.413 10 0 60606 57600.00000 0 14566578.600 -20345003.556 5060718.093 10 0 60606 58500.00000 0 14049087.257 -19700469.017 8139095.528 10 0 60606 59400.00000 0 13428620.453 -18683628.620 11059744.924 10 0 60606 60300.00000 0 12763123.328 -17300121.662 13766072.771 10 0 60606 61200.00000 0 12109609.684 -15568665.486 16205631.303 10 0 60606 62100.00000 0 11521620.333 -13520486.100 18331128.112 10 0 60606 63000.00000 0 11046842.313 -11198238.420 20101337.060 10 0 60606 63900.00000 0 10724988.771 -8654459.877 21481893.507 10 0 60606 64800.00000 0 10586028.349 -5949620.324 22445959.031 10 0 60606 65700.00000 0 10648838.470 -3149847.693 22974743.211 10 0 60606 66600.00000 0 10920339.359 -324422.311 23057872.531 10 0 60606 67500.00000 0 11395145.771 2456857.713 22693599.136 10 0 60606 68400.00000 0 12055751.986 5126332.108 21888844.959 10 0 60606 69300.00000 0 12873243.501 7621045.980 20659079.588 10 0 60606 70200.00000 0 13808506.840 9885123.547 19028033.225 10 0 60606 71100.00000 0 14813888.030 11871849.943 17027249.088 10 0 60606 72000.00000 0 15835231.153 13545374.694 14695482.698 10 0 60606 72900.00000 0 16814212.101 14881965.879 12077958.546 10 0 60606 73800.00000 0 17690869.695 15870762.475 9225497.572 10 0 60606 74700.00000 0 18406227.477 16513993.305 6193531.829 10 0 60606 75600.00000 0 18904895.033 16826653.375 3041025.242 10 0 60606 76500.00000 0 19137538.081 16835651.372 -170678.375 10 0 60606 77400.00000 0 19063111.624 16578464.660 -3379056.957 10 0 60606 78300.00000 0 18650760.255 16101359.206 -6521637.201 10 0 60606 79200.00000 0 17881303.834 15457250.736 -9537221.838 10 0 60606 80100.00000 0 16748244.239 14703298.656 -12367092.004 10 0 60606 81000.00000 0 15258249.442 13898335.856 -14956160.065 10 0 60606 81900.00000 0 13431093.497 13100244.383 -17254049.434 10 0 60606 82800.00000 0 11299054.197 12363389.050 -19216079.607 10 0 60606 83700.00000 0 8905793.326 11736218.405 -20804136.857 10 0 60606 84600.00000 0 6304766.261 11259134.880 -21987413.660 10 0 60606 85500.00000 0 3557227.501 10962724.223 -22743002.746 10 0 60607 0.00000 0 729915.676 10866418.626 -23056334.881 10 0 60607 900.00000 0 -2107486.959 10977649.389 -22921452.722 10 0 60607 1800.00000 0 -4885011.123 11291524.091 -22341116.007 10 0 60607 2700.00000 0 -7535068.151 11791040.809 -21326737.454 10 0 60607 3600.00000 0 -9995014.679 12447829.618 -19898150.912 10 0 60607 4500.00000 0 -12209510.242 13223389.212 -18083217.129 10 0 60607 5400.00000 0 -14132570.769 14070765.948 -15917275.267 10 0 60607 6300.00000 0 -15729234.069 14936604.114 -13442451.073 10 0 60607 7200.00000 0 -16976769.602 15763480.797 -10706835.372 10 0 60607 8100.00000 0 -17865383.898 16492426.929 -7763548.842 10 0 60607 9000.00000 0 -18398393.979 17065528.377 -4669711.219 10 0 60607 9900.00000 0 -18591863.260 17428497.670 -1485334.861 10 0 60607 10800.00000 0 -18473716.754 17533108.242 1727835.977 10 0 60607 11700.00000 0 -18082374.006 17339388.904 4907517.827 10 0 60607 12600.00000 0 -17464958.165 16817486.279 7992089.718 10 0 60607 13500.00000 0 -16675157.122 15949116.846 10921780.948 10 0 60607 14400.00000 0 -15770826.915 14728547.356 13639822.324 10 0 60607 15300.00000 0 -14811438.203 13163061.990 16093539.055 10 0 60607 16200.00000 0 -13855472.840 11272895.898 18235364.760 10 0 60607 17100.00000 0 -12957879.544 9090636.808 20023757.648 10 0 60607 18000.00000 0 -12167694.961 6660118.362 21424001.758 10 0 60607 18900.00000 0 -11525929.547 4034849.685 22408878.364 10 0 60607 19800.00000 0 -11063806.583 1276044.790 22959194.975 10 0 60607 20700.00000 0 -10801428.067 -1549668.040 23064161.861 10 0 60607 21600.00000 0 -10746923.589 -4372763.570 22721608.715 10 0 60607 22500.00000 0 -10896118.312 -7123460.751 21938036.823 10 0 60607 23400.00000 0 -11232734.731 -9734379.395 20728504.983 10 0 60607 24300.00000 0 -11729120.622 -12143103.137 19116350.364 10 0 60607 25200.00000 0 -12347473.648 -14294542.872 17132748.534 10 0 60607 26100.00000 0 -13041512.075 -16143002.644 14816119.948 10 0 60607 27000.00000 0 -13758522.024 -17653861.877 12211393.225 10 0 60607 27900.00000 0 -14441695.500 -18804803.651 9369138.543 10 0 60607 28800.00000 0 -15032660.625 -19586537.291 6344587.384 10 0 60607 29700.00000 0 -15474096.812 -20002984.716 3196557.381 10 0 60607 30600.00000 0 -15712323.569 -20070922.683 -13696.622 10 0 60607 31500.00000 0 -15699752.180 -19819095.999 -3223682.339 10 0 60607 32400.00000 0 -15397095.076 -19286839.579 -6370896.351 10 0 60607 33300.00000 0 -14775237.842 -18522268.244 -9394051.931 10 0 60607 34200.00000 0 -13816693.087 -17580111.677 -12234283.133 10 0 60607 35100.00000 0 -12516573.293 -16519287.189 -14836300.524 10 0 60607 36000.00000 0 -10883040.243 -15400313.991 -17149475.013 10 0 60607 36900.00000 0 -8937211.160 -14282679.359 -19128827.891 10 0 60607 37800.00000 0 -6712524.751 -13222268.770 -20735907.448 10 0 60607 38700.00000 0 -4253593.361 -12268969.027 -21939535.081 10 0 60607 39600.00000 0 -1614589.055 -11464545.583 -22716406.686 10 0 60607 40500.00000 0 1142769.011 -10840883.290 -23051538.262 10 0 60607 41400.00000 0 3951542.062 -10418663.972 -22938547.853 10 0 60607 42300.00000 0 6742117.168 -10206535.550 -22379769.222 10 0 60607 43200.00000 0 9444865.087 -10200806.515 -21386195.929 10 0 60607 44100.00000 0 11992800.477 -10385677.300 -19977257.681 10 0 60607 45000.00000 0 14324134.565 -10733997.583 -18180433.939 10 0 60607 45900.00000 0 16384615.178 -11208516.487 -16030712.790 10 0 60607 46800.00000 0 18129557.966 -11763572.114 -13569905.877 10 0 60607 47700.00000 0 19525485.659 -12347148.500 -10845832.903 10 0 60607 48600.00000 0 20551308.554 -12903212.842 -7911391.602 10 0 60607 49500.00000 0 21198998.595 -13374234.242 -4823531.176 10 0 60607 50400.00000 0 21473730.408 -13703777.661 -1642149.103 10 0 60607 51300.00000 0 21393484.905 -13839063.787 1571067.429 10 0 60607 52200.00000 0 20988133.320 -13733386.975 4753833.160 10 0 60607 53100.00000 0 20298041.145 -13348289.462 7844466.576 10 0 60607 54000.00000 0 19372251.249 -12655400.271 10783078.900 10 0 60607 54900.00000 0 18266322.867 -11637861.246 13512727.684 10 0 60607 55800.00000 0 17039917.226 -10291279.851 15980513.096 10 0 60607 56700.00000 0 15754230.953 -8624168.056 18138596.307 10 0 60607 57600.00000 0 14469384.451 -6657847.864 19945120.937 10 0 60607 58500.00000 0 13241874.191 -4425826.079 21365020.344 10 0 60607 59400.00000 0 12122195.039 -1972662.811 22370695.734 10 0 60607 60300.00000 0 11152731.594 647621.026 22942552.410 10 0 60607 61200.00000 0 10366006.411 3373532.816 23069383.954 10 0 60607 62100.00000 0 9783358.202 6138413.250 22748596.821 10 0 60607 63000.00000 0 9414105.362 8872963.308 21986270.592 10 0 60607 63900.00000 0 9255230.172 11507889.796 20797051.967 10 0 60607 64800.00000 0 9291597.370 13976560.819 19203883.573 10 0 60607 65700.00000 0 9496698.575 16217561.666 17237571.644 10 0 60607 66600.00000 0 9833891.962 18177045.139 14936199.723 10 0 60607 67500.00000 0 10258085.573 19810778.501 12344398.583 10 0 60607 68400.00000 0 10717793.770 21085801.350 9512485.557 10 0 60607 69300.00000 0 11157480.065 21981624.599 6495489.319 10 0 60607 70200.00000 0 11520087.117 22490920.023 3352078.887 10 0 60607 71100.00000 0 11749646.145 22619670.886 143417.730 10 0 60607 72000.00000 0 11793854.173 22386777.039 -3068034.079 10 0 60607 72900.00000 0 11606508.677 21823131.415 -6219745.414 10 0 60607 73800.00000 0 11149694.883 20970207.106 -9250342.387 10 0 60607 74700.00000 0 10395631.528 19878215.417 -12100814.132 10 0 60607 75600.00000 0 9328095.416 18603913.563 -14715671.388 10 0 60607 76500.00000 0 7943363.128 17208155.538 -17044034.311 10 0 60607 77400.00000 0 6250628.954 15753290.569 -19040627.536 10 0 60607 78300.00000 0 4271880.533 14300519.743 -20666662.702 10 0 60607 79200.00000 0 2041236.736 12907322.797 -21890591.269 10 0 60607 80100.00000 0 -396224.846 11625063.696 -22688713.225 10 0 60607 81000.00000 0 -2986101.996 10496875.499 -23045630.494 10 0 60607 81900.00000 0 -5666695.481 9555912.839 -22954536.979 10 0 60607 82800.00000 0 -8371345.738 8824044.438 -22417340.506 10 0 60607 83700.00000 0 -11030981.539 8311039.243 -21444615.176 10 0 60607 84600.00000 0 -13576774.957 8014278.857 -20055385.842 10 0 60607 85500.00000 0 -15942792.679 7919006.739 -18276749.562 10 0 60608 0.00000 0 -18068533.973 7999102.140 -16143342.064 10 0 60608 900.00000 0 -19901251.712 8218344.857 -13696658.718 10 0 60608 1800.00000 0 -21397958.123 8532116.262 -10984246.283 10 0 60608 2700.00000 0 -22527036.689 8889464.167 -8058777.403 10 0 60608 3600.00000 0 -23269391.387 9235443.770 -4977028.537 10 0 60608 4500.00000 0 -23619087.748 9513635.589 -1798780.026 10 0 60608 5400.00000 0 -23583460.041 9668733.957 1414340.280 10 0 60608 6300.00000 0 -23182681.238 9649096.840 4600047.639 10 0 60608 7200.00000 0 -22448814.722 9409149.439 7696602.320 10 0 60608 8100.00000 0 -21424388.225 8911540.233 10643999.840 10 0 60608 9000.00000 0 -20160550.168 8128958.517 13385126.868 10 0 60608 9900.00000 0 -18714885.819 7045536.650 15866860.871 10 0 60608 10800.00000 0 -17148984.598 5657777.504 18041092.830 10 0 60608 11700.00000 0 -15525859.972 3974967.300 19865653.879 10 0 60608 12600.00000 0 -13907329.318 2019055.312 21305128.574 10 0 60608 13500.00000 0 -12351462.625 -175996.095 22331539.651 10 0 60608 14400.00000 0 -10910205.897 -2565365.772 22924891.477 10 0 60608 15300.00000 0 -9627277.950 -5094986.342 23073561.856 10 0 60608 16200.00000 0 -8536427.896 -7703549.901 22774534.551 10 0 60608 17100.00000 0 -7660125.843 -10324825.454 22033467.595 10 0 60608 18000.00000 0 -7008741.435 -12890193.467 20864595.382 10 0 60608 18900.00000 0 -6580244.755 -15331293.607 19290465.401 10 0 60608 19800.00000 0 -6360442.365 -17582676.591 17341513.589 10 0 60608 20700.00000 0 -6323738.989 -19584350.282 15055485.260 10 0 60608 21600.00000 0 -6434393.157 -21284114.047 12476711.701 10 0 60608 22500.00000 0 -6648214.188 -22639583.680 9655255.437 10 0 60608 23400.00000 0 -6914628.945 -23619821.676 6645940.154 10 0 60608 24300.00000 0 -7179030.796 -24206503.941 3507283.839 10 0 60608 25200.00000 0 -7385310.760 -24394573.200 300355.973 10 0 60608 26100.00000 0 -7478462.726 -24192351.199 -2912418.333 10 0 60608 27000.00000 0 -7407151.038 -23621104.556 -6068483.140 10 0 60608 27900.00000 0 -7126130.106 -22714082.615 -9106380.422 10 0 60608 28800.00000 0 -6598411.994 -21515068.347 -11966957.471 10 0 60608 29700.00000 0 -5797088.520 -20076503.919 -14594528.293 10 0 60608 30600.00000 0 -4706729.323 -18457270.802 -16937965.312 10 0 60608 31500.00000 0 -3324295.536 -16720218.968 -18951699.322 10 0 60608 32400.00000 0 -1659529.448 -14929550.005 -20596607.825 10 0 60608 33300.00000 0 265197.030 -13148164.958 -21840774.432 10 0 60608 34200.00000 0 2415569.307 -11435088.717 -22660104.819 10 0 60608 35100.00000 0 4746524.027 -9843079.050 -23038787.871 10 0 60608 36000.00000 0 7203900.256 -8416520.056 -22969593.834 10 0 60608 36900.00000 0 9726479.153 -7189687.483 -22454004.538 10 0 60608 37800.00000 0 12248327.197 -6185457.260 -21502174.067 10 0 60608 38700.00000 0 14701345.662 -5414509.758 -20132721.399 10 0 60608 39600.00000 0 17017920.434 -4875061.364 -18372359.733 10 0 60608 40500.00000 0 19133562.430 -4553132.757 -16255370.173 10 0 60608 41400.00000 0 20989429.311 -4423340.836 -13822930.312 10 0 60608 42300.00000 0 22534624.205 -4450179.394 -11122310.958 10 0 60608 43200.00000 0 23728176.594 -4589733.301 -8205956.649 10 0 60608 44100.00000 0 24540623.700 -4791752.901 -5130467.772 10 0 60608 45000.00000 0 24955127.391 -5002000.452 -1955504.006 10 0 60608 45900.00000 0 24968080.972 -5164769.114 1257369.773 10 0 60608 46800.00000 0 24589181.434 -5225467.966 4445872.932 10 0 60608 47700.00000 0 23840964.949 -5133163.867 7548210.949 10 0 60608 48600.00000 0 22757825.682 -4842972.891 10504266.773 10 0 60608 49500.00000 0 21384559.360 -4318200.472 13256758.952 10 0 60608 50400.00000 0 19774492.664 -3532139.906 15752344.590 10 0 60608 51300.00000 0 17987276.533 -2469453.162 17942646.354 10 0 60608 52200.00000 0 16086435.200 -1127075.286 19785184.313 10 0 60608 53100.00000 0 14136772.734 485396.542 21244195.198 10 0 60608 54000.00000 0 12201744.568 2345846.973 22291323.835 10 0 60608 54900.00000 0 10340902.808 4420315.139 22906173.805 10 0 60608 55800.00000 0 8607521.067 6664169.805 23076706.900 10 0 60608 56700.00000 0 7046497.083 9023740.086 22799483.564 10 0 60608 57600.00000 0 5692620.020 11438335.865 22079739.299 10 0 60608 58500.00000 0 4569274.362 13842575.657 20931294.846 10 0 60608 59400.00000 0 3687634.369 16168926.651 19376300.910 10 0 60608 60300.00000 0 3046382.733 18350352.399 17444821.199 10 0 60608 61200.00000 0 2631965.375 20322958.511 15174260.645 10 0 60608 62100.00000 0 2419371.805 22028526.318 12608648.695 10 0 60608 63000.00000 0 2373408.323 23416828.381 9797790.576 10 0 60608 63900.00000 0 2450410.356 24447628.505 6796302.364 10 0 60608 64800.00000 0 2600321.333 25092281.594 3662548.310 10 0 60608 65700.00000 0 2769049.645 25334865.303 457501.181 10 0 60608 66600.00000 0 2901002.979 25172795.030 -2756451.601 10 0 60608 67500.00000 0 2941691.463 24616895.661 -5916731.940 10 0 60608 68400.00000 0 2840287.826 23690926.785 -8961800.161 10 0 60608 69300.00000 0 2552034.514 22430581.250 -11832364.016 10 0 60608 70200.00000 0 2040394.164 20881999.617 -14472542.825 10 0 60608 71100.00000 0 1278850.929 19099863.616 -16830963.049 10 0 60608 72000.00000 0 252285.075 17145149.542 -18861763.137 10 0 60608 72900.00000 0 -1042138.269 15082636.884 -20525487.685 10 0 60608 73800.00000 0 -2594604.550 12978277.521 -21789853.434 10 0 60608 74700.00000 0 -4382825.366 10896536.302 -22630372.463 10 0 60608 75600.00000 0 -6372747.220 8897814.592 -23030821.071 10 0 60608 76500.00000 0 -8519764.002 7036064.315 -22983545.981 10 0 60608 77400.00000 0 -10770382.606 5356691.575 -22489602.815 10 0 60608 78300.00000 0 -13064272.207 3894836.312 -21558725.029 10 0 60608 79200.00000 0 -15336611.854 2674098.378 -20209124.710 10 0 60608 80100.00000 0 -17520638.638 1705761.472 -18467129.779 10 0 60608 81000.00000 0 -19550290.546 988545.427 -16366665.135 10 0 60608 81900.00000 0 -21362834.273 508895.182 -13948588.145 10 0 60608 82800.00000 0 -22901368.937 241792.410 -11259891.561 10 0 60608 83700.00000 0 -24117101.902 152053.927 -8352789.412 10 0 60608 84600.00000 0 -24971302.438 196060.853 -5283703.554 10 0 60608 85500.00000 0 -25436852.366 323844.546 -2112170.512 10 0 60609 0.00000 0 -25499329.642 481440.563 1100310.013 10 0 60609 900.00000 0 -25157580.256 613410.924 4291464.557 10 0 60609 1800.00000 0 -24423755.120 665427.779 7399446.000 10 0 60609 2700.00000 0 -23322810.978 586809.641 10364027.165 10 0 60609 3600.00000 0 -21891496.287 332902.961 13127760.880 10 0 60609 4500.00000 0 -20176864.606 -132791.318 15637086.169 10 0 60609 5400.00000 0 -18234377.360 -836835.982 17843359.499 10 0 60609 6300.00000 0 -16125674.710 -1794495.937 19703791.743 10 0 60609 7200.00000 0 -13916106.834 -3008854.644 21182273.368 10 0 60609 8100.00000 0 -11672127.691 -4470446.769 22250072.482 10 0 60609 9000.00000 0 -9458658.801 -6157423.823 22886392.685 10 0 60609 9900.00000 0 -7336531.902 -8036247.591 23078780.160 10 0 60609 10800.00000 0 -5360115.929 -10062884.308 22823372.055 10 0 60609 11700.00000 0 -3575226.348 -12184451.767 22124980.998 10 0 60609 12600.00000 0 -2017403.303 -14341252.608 20997013.411 10 0 60609 13500.00000 0 -710629.938 -16469110.750 19461222.234 10 0 60609 14400.00000 0 333455.827 -18501914.918 17547297.679 10 0 60609 15300.00000 0 1115823.213 -20374264.063 15292302.755 10 0 60609 16200.00000 0 1649773.164 -22024104.565 12739963.271 10 0 60609 17100.00000 0 1960137.292 -23395248.945 9939825.120 10 0 60609 18000.00000 0 2081984.928 -24439670.071 6946294.546 10 0 60609 18900.00000 0 2058893.142 -25119473.752 3817579.678 10 0 60609 19800.00000 0 1940853.379 -25408465.913 614554.063 10 0 60609 20700.00000 0 1781904.045 -25293247.213 -2600435.163 10 0 60609 21600.00000 0 1637590.515 -24773788.054 -5764790.405 10 0 60609 22500.00000 0 1562361.494 -23863459.057 -8816893.055 10 0 60609 23400.00000 0 1607013.650 -22588515.231 -11697314.048 10 0 60609 24300.00000 0 1816294.317 -20987055.469 -14349980.708 10 0 60609 25200.00000 0 2226765.316 -19107501.332 -16723276.133 10 0 60609 26100.00000 0 2865019.625 -17006659.593 -18771048.855 10 0 60609 27000.00000 0 3746327.378 -14747450.534 -20453512.723 10 0 60609 27900.00000 0 4873769.172 -12396397.930 -21738019.409 10 0 60609 28800.00000 0 6237893.809 -10020986.348 -22599688.776 10 0 60609 29700.00000 0 7816915.219 -7686996.591 -23021885.443 10 0 60609 30600.00000 0 9577440.499 -5455930.465 -22996533.040 10 0 60609 31500.00000 0 11475698.608 -3382631.897 -22524260.947 10 0 60609 32400.00000 0 13459218.301 -1513202.657 -21614381.520 10 0 60609 33300.00000 0 15468885.182 116701.737 -20284699.074 10 0 60609 34200.00000 0 17441291.947 1483126.526 -18561154.985 10 0 60609 35100.00000 0 19311283.837 2574572.220 -16477316.306 10 0 60609 36000.00000 0 21014593.239 3392219.687 -14073718.159 10 0 60609 36900.00000 0 22490453.730 3949618.486 -11397072.852 10 0 60609 37800.00000 0 23684084.783 4271853.501 -8499361.166 10 0 60609 38700.00000 0 24548943.811 4394226.663 -5436823.372 10 0 60609 39600.00000 0 25048651.867 4360510.621 -2268869.568 10 0 60609 40500.00000 0 25158513.028 4220849.081 943069.704 10 0 60609 41400.00000 0 24866564.333 4029393.032 4136730.409 10 0 60609 42300.00000 0 24174112.774 3841773.078 7250216.706 10 0 60609 43200.00000 0 23095737.105 3712514.666 10223194.400 10 0 60609 44100.00000 0 21658754.499 3692505.338 12998053.388 10 0 60609 45000.00000 0 19902174.194 3826620.740 15521017.065 10 0 60609 45900.00000 0 17875181.501 4151609.440 17743177.757 10 0 60609 46800.00000 0 15635214.796 4694325.734 19621438.808 10 0 60609 47700.00000 0 13245714.884 5470385.156 21119345.692 10 0 60609 48600.00000 0 10773639.468 6483299.824 22207790.678 10 0 60609 49500.00000 0 8286845.036 7724130.956 22865577.866 10 0 60609 50400.00000 0 5851443.925 9171674.476 23079837.898 10 0 60609 51300.00000 0 3529245.316 10793173.610 22846284.273 10 0 60609 52200.00000 0 1375385.556 12545530.524 22169305.962 10 0 60609 53100.00000 0 -563754.439 14376968.237 21061893.845 10 0 60609 54000.00000 0 -2252258.619 16229075.173 19545401.466 10 0 60609 54900.00000 0 -3665941.252 18039148.423 17649143.549 10 0 60609 55800.00000 0 -4793115.745 19742738.888 15409838.865 10 0 60609 56700.00000 0 -5634834.820 21276292.432 12870907.046 10 0 60609 57600.00000 0 -6204592.057 22579776.572 10081631.957 10 0 60609 58500.00000 0 -6527497.421 23599182.080 7096207.174 10 0 60609 59400.00000 0 -6638961.912 24288793.861 3972681.837 10 0 60609 60300.00000 0 -6582947.193 24613134.367 771827.397 10 0 60609 61200.00000 0 -6409854.942 24548496.418 -2444052.146 10 0 60609 62100.00000 0 -6174146.347 24083999.779 -5612342.433 10 0 60609 63000.00000 0 -5931793.776 23222125.711 -8671348.512 10 0 60609 63900.00000 0 -5737674.077 21978706.235 -11561506.881 10 0 60609 64800.00000 0 -5643015.437 20382368.013 -14226554.997 10 0 60609 65700.00000 0 -5693007.386 18473454.018 -16614634.436 10 0 60609 66600.00000 0 -5924676.421 16302468.477 -18679305.360 10 0 60609 67500.00000 0 -6365118.170 13928110.720 -20380452.120 10 0 60609 68400.00000 0 -7030161.545 11414980.810 -21685062.288 10 0 60609 69300.00000 0 -7923521.747 8831053.419 -22567864.195 10 0 60609 70200.00000 0 -9036478.056 6245025.834 -23011811.174 10 0 60609 71100.00000 0 -10348090.008 3723650.727 -23008403.850 10 0 60609 72000.00000 0 -11825942.784 1329164.599 -22557845.090 10 0 60609 72900.00000 0 -13427390.394 -883081.729 -21669025.513 10 0 60609 73800.00000 0 -15101244.402 -2866693.065 -20359340.618 10 0 60609 74700.00000 0 -16789837.363 -4585915.503 -18654343.803 10 0 60609 75600.00000 0 -18431374.561 -6016869.369 -16587242.483 10 0 60609 76500.00000 0 -19962475.736 -7148280.062 -14198247.432 10 0 60609 77400.00000 0 -21320800.563 -7981678.344 -11533788.183 10 0 60609 78300.00000 0 -22447648.267 -8531063.832 -8645609.772 10 0 60609 79200.00000 0 -23290422.867 -8822047.704 -5589768.293 10 0 60609 80100.00000 0 -23804861.124 -8890512.335 -2425544.762 10 0 60609 81000.00000 0 -23956930.253 -8780845.620 785701.826 10 0 60609 81900.00000 0 -23724316.200 -8543825.329 3981720.135 10 0 60609 82800.00000 0 -23097440.344 -8234243.372 7100568.005 10 0 60609 83700.00000 0 -22079962.180 -7908370.454 10081806.862 10 0 60609 84600.00000 0 -20688746.835 -7621368.183 12867666.250 10 0 60609 85500.00000 0 -18953298.516 -7424757.648 15404156.353 99